EHI
0 0 0 0 0 0 0 0 0 0 0 0 0 0 0 0 0 0 0 0 0 0 0 0 0 0 0 0 0 0 0 0 0 0 0 0 0 0 0 0 0 0 0
0 0 0 0 0 0 0 0 0 0 0 0 0 0 0 0 0 0 0 0 0 0 0 0 0 0 0 0 0 0 0 0 0 0 0 0 0 0 0 0 0 0 0
0 0 0 0 0 0 0 0 0 0 0 0 0 0 0 0 0 0 0 0 0 0 0 0 0 0 0 0 0 0 0 0 0 0 0 0 0 0 0 0 0 0 0
0 0 0 0 0 0 0 0 0 0 0 0 0 0 0 0 0 0 0 0 0 0 0 0 0 0 0 0 0 0 0 0 0 0 0 0 0 0 0 0 0 0 0
0 0 0 0 0 0 0 0 0 0 0 0 0 0 0 0 0 0 0 0 0 0 0 0 0 0 0 0 0 0 0 0 0 0 0 0 0 0 0 0 0 0 0
0 0 0 0 0 0 0 0 0 0 0 0 0 0 0 0 0 0 0 0 0 0 0 0 0 0 0 0 0 0 0 0 0 0 0 0 0 0 0 0 0 0 0
0 0 0 0 0 0 0 0 0 0 0 0 0 0 0 0 0 0 0 0 0 0 0 0 0 0 0 0 0 0 0 0 0 0 0 0 0 0 0 0 0 0 0
0 0 0 0 0 0 0 0 0 0 0 0 0 0 0 0 0 0 0 0 0 0 0 0 0 0 0 0 0 0 0 0 0 0 0 0 0 0 0 0 0 0 0
0 0 0 0 0 0 0 0 0 0 0 0 0 0 0 0 0 0 0 0 0 0 0 0 0 0 0 0 0 0 0 0 0 0 0 0 0 0 0 0 0 0 0
0 0 0 0 0 0 0 0 0 0 0 0 0 0 0 0 0 0 0 0 0 0 0 0 0 0 0 0 0 0 0 0 0 0 0 0 0 0 0 0 0 0 0
0 0 0 0 0 0 0 0 0 0 0 0 0 0 0 0 0 0 0 0 0 0 0 0 0 0 0 0 0 0 0 0 0 0 0 0 0 0 0 0 0 0 0
0 0 0 0 0 0 0 0 0 0 0 0 0 0 0 0 0 0 0 0 0 0 0 0 0 0 0 0 0 0 0 0 0 0 0 0 0 0 0 0 0 0 0
0 0 0 0 0 0 0 0 0 0 0 0 0 0 0 0 0 0 0 0 0 0 0 0 0 0 0 0 0 0 0 0 0 0 0 0 0 0 0 0 0 0 0
0 0 0 0 0 0 0 0 0 0 0 0 0 0 0 0 0 0 0 0 0 0 0 0 0 0 0 0 0 0 0 0 0 0 0 0 0 0 0 0 0 0 0
0 0 0 0 0 0 0 0 0 0 0 0 0 0 0 0 0 0 0 0 0 0 0 0 0 0 0 0 0 0 0 0 0 0 0 0 0 0 0 0 0 0 0
0 0 0 0 0 0 0 0 0 0 0 0 0 0 0 0 0 0 0 0 0 0 0 0 0 0 0 0 0 0 0 0 0 0 0 0 0 0 0 0 0 0 0
0 0 0 0 0 0 0 0 0 0 0 0 0 0 0 0 0 0 0 0 0 0 0 0 0 0 0 0 0 0 0 0 0 0 0 0 0 0 0 0 0 0 0
0 0 0 0 0 0 0 0 0 0 0 0 0 0 0 0 0 0 0 0 0 0 0 0 0 0 0 0 0 0 0 0 0 0 0 0 0 0 0 0 0 0 0
0 0 0 0 0 0 0 0 0 0 0 0 0 0 0 0 0 0 0 0 0 0 0 0 0 0 0 0 0 0 0 0 0 0 0 0 0 0 0 0 0 0 0
0 0 0 0 0 0 0 0 0 0 0 0 0 0 0 0 0 0 0 0 0 0 0 0 0 0 0 0 0 0 0 0 0 0 0 0 0 0 0 0 0 0 0
0 0 0 0 0 0 0 0 0 0 0 0 0 0 0 0 0 0 0 0 0 0 0 0 0 0 0 0 0 0 0 0 0 0 0 0 0 0 0 0 0 0 0
0 0 0 0 0 0 0 0 0 0 0 0 0 0 0 0 0 0 0 0 0 0 0 0 0 0 0 0 0 0 0 0 0 0 0 0 0 0 0 0 0 0 0
0 0 0 0 0 0 0 0 0 0 0 0 0 0 0 0 0 0 0 0 0 0 0 0 0 0 0 0 0 0 0 0 0 0 0 0 0 0 0 0 0 0 0
0 0 0 0 0 0 0 0 0 0 0 0 0 0 0 0 0 0 0 0 0 0 0 0 0 0 0 0 0 0 0 0 0 0 0 0 0 0 0 0 0 0 0
0 0 0 0 0 0 0 0 0 0 0 0 0 0 0 0 0 0 0 0 0 0 0 0 0 0 0 0 0 0 0 0 0 0 0 0 0 0 0 0 0 0 0
0 0 0 0 0 0 0 0 0 0 0 0 0 0 0 0 0 0 0 0 0 0 0 0 0 0 0 0 0 0 0 0 0 0 0 0 0 0 0 0 0 0 0
Wind_Speed
6 6 8 8 8 8 7 8 8 8 9 8 8 8 8 7 7 6 7 7 7 7 5 6 6 5 3 4 3 4 4 5 8 8 5 5 7 9 7 5 5 5 8
6 6 7 6 7 7 7 8 8 9 9 9 9 8 8 8 7 7 8 8 7 7 7 6 6 3 3 3 3 4 4 5 6 8 7 6 10 11 11 9 7 7 8
6 6 6 6 6 5 6 7 8 9 9 8 7 7 8 8 7 7 7 9 8 7 6 5 4 2 2 2 3 4 4 5 5 6 8 5 8 7 9 9 9 7 7
7 6 5 5 5 5 5 6 8 10 10 9 8 8 8 7 6 5 7 7 6 4 3 2 2 2 2 3 3 4 5 5 6 6 8 6 6 6 8 9 7 7 6
5 4 3 3 4 5 6 6 7 8 9 9 10 9 8 6 5 8 7 7 7 6 5 4 3 5 6 6 6 5 4 5 6 7 8 7 5 5 7 8 9 7 9
3 3 4 4 5 6 7 8 7 7 8 7 9 8 7 6 11 14 10 7 8 7 7 8 6 6 7 10 12 14 13 10 9 9 9 11 10 7 7 9 9 7 7
5 5 4 4 6 6 7 8 7 7 6 6 9 8 9 11 17 18 16 9 8 8 8 8 9 9 11 8 11 14 15 19 19 14 13 15 12 8 8 10 11 12 9
5 5 5 5 5 6 7 8 8 7 7 7 8 10 10 13 18 18 15 8 7 7 7 7 7 8 10 14 12 12 12 12 15 14 14 13 12 10 9 11 12 13 12
5 5 5 5 5 5 6 7 7 6 6 7 8 9 10 11 17 17 14 7 7 7 6 7 9 9 16 21 15 13 13 13 16 22 22 22 23 21 15 10 11 11 10
6 6 5 6 6 5 5 6 6 6 6 6 5 7 10 10 16 19 16 8 8 8 7 8 15 17 23 24 18 14 14 15 15 15 16 17 16 18 22 17 13 12 11
6 5 5 6 6 5 5 6 6 5 6 6 6 6 7 10 14 20 19 10 9 9 8 8 10 21 24 24 22 15 17 20 18 16 14 12 11 11 12 13 12 12 11
6 5 5 6 6 6 5 5 5 5 5 5 5 4 4 7 13 18 21 17 15 10 9 9 11 23 24 23 19 21 26 21 13 12 13 12 10 10 11 12 12 12 13
5 5 5 5 5 6 5 5 4 4 4 4 4 4 4 5 8 16 18 20 18 13 11 16 19 21 19 15 19 22 18 11 11 11 12 11 10 11 12 12 12 12 13
4 4 5 5 6 6 5 4 4 4 4 4 5 5 5 5 6 7 7 9 13 12 10 12 16 14 13 13 14 12 9 10 11 11 11 12 12 11 11 12 11 10 10
3 4 4 4 5 4 4 4 4 4 4 4 3 4 5 6 10 15 13 10 9 12 12 8 8 8 9 9 9 10 10 11 11 11 12 13 12 12 11 13 11 10 10
4 4 4 3 3 3 3 5 8 9 11 11 10 8 7 11 17 18 19 18 17 16 9 7 8 9 9 10 11 12 12 12 12 13 13 13 13 13 14 12 11 10 9
4 4 4 4 3 4 4 5 6 8 10 11 13 13 12 14 16 17 18 17 15 13 7 7 7 8 9 10 10 11 13 13 15 14 13 14 14 12 15 11 10 9 8
4 4 3 3 4 4 4 4 5 6 7 8 11 13 13 16 15 15 16 12 8 6 6 7 7 8 9 10 11 11 12 14 13 14 14 15 13 11 9 7 7 7 8
4 4 2 2 4 5 5 5 5 5 6 6 7 8 11 14 12 12 11 7 6 6 7 7 8 8 9 10 10 12 13 15 16 15 15 15 12 9 6 4 5 10 11
4 7 6 4 5 5 5 5 5 5 6 6 6 6 8 9 6 6 6 6 5 6 7 8 8 9 9 10 11 12 13 15 16 14 14 14 9 4 0 3 6 8 8
3 5 8 5 4 4 4 4 4 4 5 6 6 8 14 8 5 7 7 6 6 7 7 8 8 9 9 10 11 12 14 14 14 13 13 12 8 3 3 5 7 8 10
3 4 4 4 5 5 5 3 4 4 5 7 6 9 13 7 5 6 7 6 6 7 7 8 8 8 8 9 11 13 14 15 14 13 12 10 7 3 4 6 8 9 10
3 4 5 5 5 7 6 5 5 6 6 7 7 8 8 7 6 7 7 6 6 6 7 7 8 8 9 10 11 12 13 15 12 12 11 8 5 3 4 6 8 9 10
4 4 5 5 6 6 6 7 7 8 9 8 8 8 8 7 7 8 7 6 6 6 7 7 8 10 12 12 11 12 14 13 9 9 10 6 4 5 6 7 8 10 11
4 5 5 5 6 6 7 7 7 8 9 9 8 8 8 8 8 8 7 6 6 7 7 7 7 9 13 16 16 17 21 19 11 8 8 6 6 7 8 9 10 11 12
6 6 6 6 6 7 7 8 8 9 9 9 9 9 9 9 9 8 7 6 5 5 6 6 8 10 12 13 17 22 24 19 14 11 7 6 7 8 10 11 13 12 12
Wind_Direction
40 30 36 29 25 23 18 5 353 348 348 342 328 318 306 293 284 276 267 266 262 261 252 244 256 260 252 267 265 247 238 237 266 272 253 233 226 222 224 203 212 213 217
51 42 41 37 28 19 5 354 348 347 341 332 328 323 319 314 306 291 279 273 259 255 254 248 256 265 281 285 285 271 263 253 247 265 266 239 228 226 229 215 209 215 216
60 53 40 25 16 1 349 340 341 333 321 314 320 322 322 318 318 315 301 284 268 255 249 236 241 224 265 269 280 283 279 277 268 267 269 245 238 226 229 229 222 223 221
57 51 34 19 359 345 335 337 340 329 323 321 317 313 308 302 309 344 342 325 306 302 299 271 261 254 256 266 262 264 276 278 274 266 266 257 235 220 216 226 216 208 219
64 62 38 13 354 341 332 337 335 329 330 333 324 320 316 320 356 20 20 3 14 13 7 354 334 304 302 307 304 285 273 273 276 274 271 262 242 221 225 223 222 207 219
71 50 24 14 3 354 343 346 337 321 321 327 318 324 330 353 10 20 32 23 23 14 3 350 334 306 305 315 316 310 301 290 282 278 275 266 251 232 230 226 225 213 221
35 24 14 1 5 355 348 344 330 319 323 337 335 352 9 19 22 29 33 24 21 11 4 352 342 344 335 316 309 307 299 291 283 274 265 266 264 247 229 228 228 220 218
23 5 1 4 350 355 354 344 338 341 349 357 5 14 25 16 14 19 26 20 17 358 345 336 330 330 329 324 316 304 295 290 282 274 266 262 260 259 239 239 231 229 235
14 354 348 346 331 348 356 343 344 350 8 10 17 20 24 8 4 10 18 5 360 344 329 326 335 333 326 325 318 307 302 294 288 280 272 272 268 260 251 247 243 231 221
356 341 344 344 326 338 6 354 350 6 16 6 9 25 19 5 356 358 9 2 356 346 339 345 343 337 332 330 324 314 305 296 290 286 281 275 273 269 258 245 240 240 228
340 343 348 344 329 2 19 14 4 13 14 9 7 7 9 3 353 351 352 358 351 343 336 336 334 332 332 329 325 315 302 301 290 276 274 269 265 263 256 244 232 229 233
348 356 351 345 347 6 22 16 13 7 9 4 352 345 354 355 348 344 342 343 345 343 332 326 328 328 329 329 325 319 319 316 304 288 268 260 261 258 255 243 229 222 224
360 356 351 353 8 6 7 11 6 3 349 345 340 337 340 347 333 327 335 342 341 339 328 331 334 330 330 327 324 328 329 322 312 307 296 279 261 262 260 244 227 222 222
5 355 2 10 20 10 4 2 4 355 339 342 342 336 333 333 313 308 326 338 343 335 333 340 333 330 328 327 327 326 323 316 312 305 298 293 283 267 259 252 227 215 215
7 5 13 27 19 4 356 354 358 343 343 342 322 318 320 319 318 333 337 337 336 334 343 341 330 331 331 330 326 324 321 319 313 307 300 294 287 276 256 247 232 208 204
18 18 11 24 6 2 353 353 359 358 357 357 346 336 325 318 326 336 334 338 338 344 347 334 331 332 328 327 325 323 320 317 311 306 297 290 280 272 267 242 222 207 195
9 28 13 7 355 1 1 357 344 345 352 352 347 340 337 325 332 336 333 337 338 346 339 327 324 321 320 320 320 316 313 310 308 302 297 292 281 271 262 237 214 199 185
354 7 16 356 346 349 350 346 338 334 335 338 341 337 335 327 333 336 335 337 331 335 327 318 317 316 317 318 317 313 311 310 307 306 305 298 287 274 259 229 205 183 159
348 335 348 353 336 340 339 331 328 328 325 323 323 326 325 319 331 336 339 334 324 326 323 318 315 314 314 314 311 309 309 309 309 311 309 305 294 277 251 208 177 162 150
337 338 340 343 331 331 325 321 319 316 315 316 318 320 314 318 339 334 332 326 323 321 318 316 315 314 312 310 309 310 310 311 310 313 314 310 305 311 5 122 127 128 124
315 323 329 321 303 297 291 285 280 282 294 306 306 309 317 335 336 325 324 324 321 317 313 313 312 310 310 310 310 311 310 308 307 313 315 314 315 345 55 95 104 108 112
294 301 302 301 300 298 294 286 286 286 291 300 303 307 317 324 313 311 311 308 305 306 307 309 306 304 305 307 307 308 308 307 308 317 317 316 326 17 75 97 104 108 112
304 302 304 300 297 303 313 308 298 298 299 296 296 303 307 307 303 299 293 290 293 298 301 301 301 303 306 306 304 303 304 304 310 318 316 318 335 34 81 97 106 109 112
319 309 307 309 310 314 309 305 306 302 300 299 298 296 292 287 282 279 279 280 283 287 292 297 300 303 307 309 307 305 302 306 320 323 325 332 9 57 79 88 97 105 109
319 319 320 314 310 309 307 302 294 289 290 290 287 282 279 278 277 275 272 266 270 279 289 298 299 303 307 310 309 308 316 337 355 354 346 5 49 68 84 92 96 98 101
332 329 324 319 311 305 299 295 294 295 293 290 286 283 281 280 279 275 270 261 259 269 282 291 293 298 306 310 312 324 340 3 17 24 20 31 61 73 80 84 88 89 91